Orangeburg, SC

6:33 PM EST on December 10, 2016 (GMT -0500)
Orangeburg Municipal

Weather History for KOGB - November, 2014

Change the Weather History Date:

Monday, November 10, 2014

  Actual Average Record
Temperature  
Mean Temperature 54 °F 58 °F  
Max Temperature 69 °F 70 °F 81 °F (1987)
Min Temperature 39 °F 46 °F 25 °F (1976)
Degree Days  
Heating Degree Days 11 8  
Month to date heating degree days 116 69  
Since 1 July heating degree days 180 159  
Cooling Degree Days 0 1  
Month to date cooling degree days 4 10  
Year to date cooling degree days 2247 2097  
Growing Degree Days 4 (Base 50)    
Moisture  
Dew Point 41 °F    
Average Humidity 63    
Maximum Humidity 92    
Minimum Humidity 35    
Precipitation  
Precipitation 0.00 in 0.12 in 1.25 in (1968)
Month to date precipitation 0.13 0.90  
Year to date precipitation 40.71 41.39  
Sea Level Pressure  
Sea Level Pressure 30.04 in    
Wind  
Wind Speed 5 mph (NE)    
Max Wind Speed 13 mph    
Max Gust Speed 17 mph    
Visibility 10 miles    
Events      
T = Trace of Precipitation, MM = Missing Value Source: NWS Daily Summary

Daily Weather History Graph

Daily Weather History Graph

Search for Another Location

Airport or City:

Trip Planner

Search our weather history database for the weather conditions in past years. The results will help you decide how hot, cold, wet, or windy it might be!

Date:

Astronomy

Nov. 10, 2014 Rise Set
Actual Time 6:50 AM EST 5:24 PM EST
Civil Twilight 6:24 AM EST 5:50 PM EST
Nautical Twilight 5:54 AM EST 6:19 PM EST
Astronomical Twilight 5:25 AM EST 6:49 PM EST
Moon 8:51 PM EST 10:09 AM EST
Length of Visible Light 11h 26m
Length of Day
10h 33m
Waning Gibbous, 85% of the Moon is Illuminated
Nov 10
Waning Gibbous
Nov 14
Last Quarter
Nov 22
New
Nov 29
First Quarter
Dec 6
Full

Hourly Weather History & Observations

Time (EST) Temp. Windchill Dew Point Humidity Pressure Visibility Wind Dir Wind Speed Gust Speed Precip Events Conditions
12:53 AM 45.0 °F - 42.1 °F 90% 30.02 in 8.0 mi Calm Calm - N/A   Clear
1:53 AM 44.1 °F - 41.0 °F 89% 30.02 in 6.0 mi Calm Calm - N/A   Clear
2:53 AM 42.1 °F - 39.9 °F 92% 30.02 in 8.0 mi Calm Calm - N/A   Clear
3:53 AM 42.1 °F - 39.0 °F 89% 30.02 in 9.0 mi Calm Calm - N/A   Clear
4:53 AM 41.0 °F - 37.9 °F 89% 30.04 in 9.0 mi Calm Calm - N/A   Clear
5:53 AM 39.9 °F - 37.0 °F 89% 30.06 in 10.0 mi Calm Calm - N/A   Clear
6:53 AM 41.0 °F 38.0 °F 37.9 °F 89% 30.06 in 9.0 mi NE 4.6 mph - N/A   Clear
7:53 AM 48.0 °F - 42.1 °F 80% 30.07 in 10.0 mi NE 3.5 mph - N/A   Clear
8:53 AM 53.1 °F - 43.0 °F 69% 30.07 in 10.0 mi ENE 8.1 mph - N/A   Clear
9:53 AM 59.0 °F - 43.0 °F 55% 30.11 in 10.0 mi Variable 5.8 mph - N/A   Clear
10:53 AM 62.1 °F - 39.9 °F 44% 30.10 in 10.0 mi ENE 11.5 mph - N/A   Clear
11:53 AM 63.0 °F - 37.0 °F 38% 30.07 in 10.0 mi ENE 9.2 mph - N/A   Clear
12:53 PM 64.9 °F - 39.0 °F 39% 30.06 in 10.0 mi ENE 6.9 mph - N/A   Clear
1:53 PM 68.0 °F - 39.0 °F 35% 30.04 in 10.0 mi Variable 6.9 mph - N/A   Clear
2:53 PM 68.0 °F - 39.0 °F 35% 30.04 in 10.0 mi East 6.9 mph - N/A   Clear
3:53 PM 68.0 °F - 39.0 °F 35% 30.04 in 10.0 mi NE 9.2 mph - N/A   Clear
4:53 PM 66.9 °F - 41.0 °F 39% 30.02 in 10.0 mi NNE 5.8 mph - N/A   Clear
5:53 PM 59.0 °F - 43.0 °F 55% 30.04 in 10.0 mi Calm Calm - N/A   Clear
6:53 PM 57.9 °F - 43.0 °F 58% 30.04 in 9.0 mi NNE 4.6 mph - N/A   Clear
7:53 PM 57.9 °F - 44.1 °F 60% 30.04 in 10.0 mi NNE 5.8 mph - N/A   Clear
8:53 PM 55.9 °F - 44.1 °F 64% 30.02 in 10.0 mi NE 4.6 mph - N/A   Clear
9:53 PM 57.0 °F - 43.0 °F 59% 30.01 in 10.0 mi North 6.9 mph - N/A   Partly Cloudy
10:53 PM 55.9 °F - 43.0 °F 62% 30.00 in 10.0 mi North 4.6 mph - N/A   Clear
11:53 PM 55.0 °F - 43.0 °F 64% 29.98 in 10.0 mi NNE 8.1 mph - N/A   Clear